Location: C�mpuri de-Sus
(45.9500°N, 22.5500°E)
Time: 03:42:50
(UTC+00:00)

Lacrosse 4 Rocket - Pass Details

Date: 24 October 2021
Orbit: 537 x 619 km, 68.0° (Epoch: 30 November)

Event Time Altitude Azimuth Distance (km) Brightness Sun altitude
Rises 15:50:01 0° 336° (NNW) 2,804 5.1 -4.5°
Reaches altitude 10° 15:52:30 10° 349° (N) 1,916 4.1 -4.9°
Maximum altitude 15:56:12 27° 48° (NE) 1,159 2.5 -5.5°
Drops below altitude 10° 15:59:56 10° 107° (ESE) 1,947 3.6 -6.2°
Enters shadow 16:02:07 - 118° (ESE) 2,722 4.4 -6.6°
